Погода в Шиковке

Россия / Ульяновская область     52°36′10″N   47°24′14″E
темп.,
°C
ветер,
м/с
пор.,
м/с
влажн.,
%
обл.,
%
осадки,
мм/ч
давл.,
гПа
погр.,
м
20 апреля, вт
вт2001:00+4в61277100 0.1 1023720
04:00+4в71379100 0.3 1024795
07:00+4в71368100 0.1 1024794
10:00+4вюв81358100 0.1 1025820
13:00+5вюв81459100 0.0 1025926
16:00+6вюв81461100 0.1 1023981
19:00+8вюв81455100 0.0 10221036
22:00+7вюв91756100 0.1 1021893
21 апреля, ср
ср2101:00+6юв91753100 0.0 1020895
04:00+3юв91987100 2.6 1020721
07:00+3юв91982100 0.7 1020826
10:00+3юв81784100 1.3 1020784
13:00+3юв81686100 0.1 1020791
16:00+3ююв81493100 2.4 1020652
19:00+3ююв61394100 1.1 1021616
22:00+3ююв41193100 1.1 1022496
22 апреля, чт
чт2201:00+4ююв31097100 0.0 1022449
04:00+5ююв3998100 0.1 1022329
07:00+5ююв399697 0.0 1023335
10:00+9ю468166 0.0 1024549
13:00+14ю566335 0.0 10231066
16:00+15ю555583 0.2 10221587
19:00+11ююв610706 0.4 1023426
22:00+7ююв388066 0.4 1025268
23 апреля, пт
пт2301:00+7ююв258391 0.0 1025247
04:00+5юв22935 0.0 102523
07:00+5юв239091 0.0 1026127
10:00+9в227487 0.0 1025394
13:00+14всв3355100 0.0 1024964
16:00+15в4453100 0.1 10221496
19:00+12в3566100 0.0 1022194
22:00+9всв2580100 0.0 1021116
24 апреля, сб
сб2401:00+9св2282100 0.0 102021
04:00+8ссв1185100 0.0 101811
07:00+8ссв1184100 0.0 101776
10:00+11с2267100 0.0 1016799
13:00+13зсз2254100 0.2 10141608
16:00+13ссв015499 0.3 1013737
19:00+12юв3566100 0.0 1012141
22:00+9ю3477100 0.1 101284